THORAD AGENA D DEB, 4744

Orbit data source: Space-Track

THORAD AGENA D DEB, 4744 is space debris in SSO originally from a launch on Wed, 08 Apr 1970 UTC launched from the Air Force Western Test Range (AFWTR). Debris objects in space refer to the collection of defunct objects orbiting the Earth. Examples of debris include non-operational satellites, rocket bodies, and fragments generated from explosions, collisions, or faulty payload assembly.

Loading next visibility...
Identifier
4744, 1970-025CT
Orbit
SSO
Country
Flag of USUS
Related business
Manufacturer
Unknown
Mission
Spacecraft
Bus & Motor
Unknown
Mass
Unknown
Launch date (UTC)
1970-04-08 (56 years ago)
Launch vehicle
Unknown
Launch site
Air Force Western Test Range (AFWTR)
Object type
Payload
Rocket body
Debris
Shape & HBR
Unknown shape, 0.3 m
Radar Cross Section
Medium (>0.1 m² and <1 m²)

Expand to show TLE details & history
Last TLE update: 20 hours ago

TLE from 20 hours ago
0 THORAD AGENA D DEB
1 04744U 70025CT  26072.30351269  .00000065  00000-0  15897-3 0  9993
2 04744 100.1415 103.8434 0016954 115.8842 244.4045 13.56865304762267
Epoch: 2026-03-13T07:17Z
TLE epoch observation values (Epoch: 2026-03-13T07:17:03.496Z)
Latitude
0.00002°
Longitude
-176.36215°
Altitude
1,055.343 km
Speed
7.322 km/s
True Right ascension
06h 55m 22s
True Declination
0° 00' 00"
Sunlit
Object was in daylight at epoch
Visualization orbit readout
Latitude
Unknown
Longitude
Unknown
Altitude
Unknown
Speed
Unknown
Apparent Right ascension
Unknown
Apparent Declination
Unknown
Sunlit
N/A
Visualization observer readout
Local Sidereal Time
07:29:02
Azimuth
Unknown
Elevation
Unknown
Doppler factor
Unknown
Orbital elements
Apogee altitude
1,057.006 km
Perigee altitude
1,031.837 km
Semi-major axis
7,422.559 km
Eccentricity
0.0017
Inclination
100.1415°
RAAN
103.8434°
Arg. of periapsis
115.8842°
True anomaly
244.22945°
Mean anomaly
244.4045°
Eccentric anomaly
244.31696°
Mean motion
3.39401 °/min
Orbital period
106.07 mins
BSTAR
0.00015897
Loading maneuver chart data...
Computing Atmospheric mass density...
Loading historical data...
Loading historical data...
Loading historical data...
Loading historical data...
Loading historical data...
Loading historical data...
Loading historical data...

Documentation

Showing up to 5 results
|